Home   Weather   Lübeck   Past weeks

Flag for Germany Past Weather in Lübeck, Schleswig-Holstein, Germany — Yesterday and Last 2 Weeks

Now
63 °F

Drizzle. Partly sunny.


Feels Like: 63 °F
Forecast: 54 / 65 °F
Wind: 15 mph from Southwest

Location: Hamburg-Fuhlsbuettel

Current Time: Jun 25, 2017 at 7:31:41 am

Latest Report: Jun 25, 2017 at 6:50 am


Visibility: 2 mi

Pressure: 29.71 "Hg

Humidity: 94%

Dew Point: 61 °F

Location of LübeckLocation

Past Weather in Lübeck — Graph

°F

Lübeck Temperature Yesterday

Maximum temperature yesterday: 66 °F (at 5:20 pm)
Minimum temperature yesterday: 59 °F (at 1:20 am)
Average temperature yesterday: 61 °F

High & Low Weather Summary for the Past Weeks

 TemperatureHumidityPressure
High84 °F (Jun 19, 6:20 pm)100% (Jun 10, 7:20 am)30.27 "Hg (Jun 10, 7:20 am)
Low46 °F (Jun 21, 4:20 am)40% (Jun 19, 6:20 pm)29.65 "Hg (Jun 22, 9:50 pm)
Average64 °F78%30.00 "Hg
* Reported Jun 10 6:20 am — Jun 25 6:20 am, Lübeck. Weather by CustomWeather, © 2017

Note: Actual official high and low records may vary slightly from our data, if they occured in-between our weather recording intervals... More about our weather records

Advertising

Lübeck Weather History for the Previous 24 Hours

Scroll right to see more
 ConditionsComfort  
Time TempWeatherWind HumidityBarometerVisibility
6:20 am
Sun, Jun 25
61 °FLight rain. Partly sunny.14 mph100%29.71 "Hg5 mi
5:50 am61 °FLight rain. Partly sunny.14 mph94%29.71 "Hg4 mi
5:20 am61 °FPartly sunny.14 mph94%29.71 "Hg5 mi
4:50 am61 °FPartly sunny.10 mph94%29.74 "Hg6 mi
4:20 am61 °FPassing clouds.9 mph100%29.74 "Hg6 mi
3:50 am61 °FPartly cloudy.8 mph94%29.74 "Hg6 mi
3:20 am61 °FPassing clouds.8 mph94%29.77 "Hg6 mi
2:50 am61 °FLight rain. Passing clouds.3 mph94%29.77 "Hg6 mi
2:20 am61 °FLight rain. Passing clouds.5 mph88%29.80 "HgN/A
1:50 am59 °FLight rain. Passing clouds.6 mph88%29.80 "HgN/A
1:20 am59 °FPassing clouds.2 mph88%29.80 "HgN/A
12:50 am59 °FPassing clouds.3 mph88%29.83 "HgN/A
12:20 am57 °FPassing clouds.5 mph94%29.83 "HgN/A
11:50 pm
Sat, Jun 24
59 °FPassing clouds.3 mph82%29.83 "HgN/A
11:20 pm59 °FPassing clouds.5 mph88%29.83 "HgN/A
10:50 pm59 °FPassing clouds.6 mph82%29.83 "HgN/A
10:20 pm61 °FPassing clouds.8 mph77%29.86 "HgN/A
9:50 pm61 °FPartly sunny.7 mph77%29.86 "HgN/A
9:20 pm61 °FPartly sunny.10 mph77%29.83 "HgN/A
8:50 pm61 °FPartly sunny.10 mph77%29.86 "HgN/A
8:20 pm63 °FPartly sunny.10 mph77%29.86 "HgN/A
7:50 pm63 °FBroken clouds.13 mph77%29.86 "HgN/A
7:20 pm64 °FBroken clouds.13 mph73%29.86 "HgN/A
6:50 pm64 °FScattered clouds.14 mph73%29.83 "HgN/A
6:20 pm64 °FScattered clouds.14 mph73%29.83 "HgN/A
5:50 pm66 °FScattered clouds.15 mph73%29.83 "HgN/A
5:20 pm66 °FScattered clouds.21 mph78%29.83 "HgN/A
4:50 pm64 °FScattered clouds.16 mph88%29.83 "HgN/A
4:20 pm63 °FBroken clouds.14 mph94%29.83 "HgN/A
3:50 pm63 °FDrizzle. Partly sunny.17 mph94%29.80 "Hg4 mi
3:20 pm63 °FDrizzle. Partly sunny.17 mph94%29.83 "Hg3 mi
2:50 pm63 °FDrizzle. Partly sunny.17 mph94%29.83 "Hg4 mi
2:20 pm63 °FDrizzle. Partly sunny.18 mph88%29.83 "Hg4 mi
1:50 pm63 °FPartly sunny.16 mph88%29.80 "Hg6 mi
1:20 pm63 °FDrizzle. Partly sunny.16 mph94%29.83 "Hg4 mi
12:50 pm63 °FPartly sunny.17 mph88%29.83 "HgN/A
12:20 pm61 °FPartly sunny.16 mph94%29.83 "HgN/A
11:50 am61 °FDrizzle. Partly sunny.14 mph94%29.83 "Hg3 mi
11:20 am61 °FDrizzle. Partly sunny.14 mph100%29.83 "Hg6 mi
10:50 am61 °FDrizzle. Partly sunny.15 mph100%29.83 "Hg4 mi
10:20 am61 °FDrizzle. Partly sunny.14 mph100%29.83 "Hg2 mi
9:50 am61 °FDrizzle. Partly sunny.13 mph100%29.83 "Hg3 mi
9:20 am61 °FDrizzle. Low clouds.10 mph100%29.83 "Hg2 mi
8:50 am61 °FDrizzle. Low clouds.13 mph100%29.83 "Hg4 mi
8:20 am61 °FDrizzle. Partly sunny.14 mph94%29.83 "Hg4 mi
7:50 am61 °FPartly sunny.14 mph94%29.83 "Hg6 mi
7:20 am61 °FPartly sunny.12 mph94%29.83 "Hg5 mi
Weather by CustomWeather, © 2017

See weather overviewHow to use our weather pages